FW1194 Weather Reports


Display with metric or nautical units.
time (UTC)temp
F
wind
direction
speed
MPH
gust
MPH
rain 1hr
in
rain 24hr
in
rain mn
in
humidity
%
barometer
mb
20260509202237 74 270 14.0 20.0 0.00 0.00 0.00 29 1002.6
20260509201237 74 248 18.0 25.0 0.00 0.00 0.00 28 1002.8
20260509200217 74 270 10.0 14.0 0.00 0.00 0.00 30 1002.8
20260509195237 73 248 16.0 24.0 0.00 0.00 0.00 30 1003.0
20260509194258 73 270 19.0 29.0 0.00 0.00 0.00 30 1003.1
20260509193217 72 225 13.0 22.0 0.00 0.00 0.00 32 1003.0
20260509192238 71 270 11.0 18.0 0.00 0.00 0.00 32 1003.0
20260509191217 71 270 16.0 22.0 0.00 0.00 0.00 30 1003.1
20260509190217 71 248 16.0 19.0 0.00 0.00 0.00 30 1002.9
20260509185237 71 248 11.0 15.0 0.00 0.00 0.00 29 1002.9
20260509184217 72 270 12.0 16.0 0.00 0.00 0.00 28 1002.8
20260509183217 73 0 12.0 16.0 0.00 0.00 0.00 28 1002.6
20260509182258 71 225 10.0 17.0 0.00 0.00 0.00 29 1002.5
20260509181217 72 0 13.0 21.0 0.00 0.00 0.00 32 1002.8
20260509180217 71 0 9.0 13.0 0.00 0.00 0.00 31 1003.0
20260509175237 71 270 9.0 13.0 0.00 0.00 0.00 30 1003.1
20260509174217 72 270 8.0 11.0 0.00 0.00 0.00 30 1003.0
20260509173217 72 248 12.0 18.0 0.00 0.00 0.00 29 1003.2
20260509172217 71 270 11.0 15.0 0.00 0.00 0.00 31 1003.2
20260509171237 71 270 10.0 15.0 0.00 0.00 0.00 33 1003.3
20260509170237 71 270 14.0 19.0 0.00 0.00 0.00 33 1003.3
20260509165217 70 248 9.0 13.0 0.00 0.00 0.00 36 1003.3
20260509164217 71 248 10.0 13.0 0.00 0.00 0.00 36 1003.4
20260509163237 70 270 12.0 19.0 0.00 0.00 0.00 38 1003.4
20260509162217 70 225 12.0 16.0 0.00 0.00 0.00 40 1003.2
20260509161217 69 293 8.0 11.0 0.00 0.00 0.00 50 1003.2
20260509160217 68 270 6.0 10.0 0.00 0.00 0.00 51 1003.1
20260509155217 67 180 7.0 10.0 0.00 0.00 0.00 60 1003.1
20260509154217 67 203 9.0 11.0 0.00 0.00 0.00 59 1003.2
20260509153217 66 0 6.0 8.0 0.00 0.00 0.00 60 1003.1
20260509152217 65 0 9.0 13.0 0.00 0.00 0.00 65 1003.2
20260509151217 64 0 8.0 11.0 0.00 0.00 0.00 66 1003.1
20260509150217 64 270 6.0 9.0 0.00 0.00 0.00 66 1003.1
20260509145217 63 0 8.0 11.0 0.00 0.00 0.00 68 1003.1
20260509144217 63 248 7.0 11.0 0.00 0.00 0.00 68 1003.1
20260509143217 62 225 8.0 9.0 0.00 0.00 0.00 70 1003.1
20260509142237 61 225 6.0 8.0 0.00 0.00 0.00 70 1003.1
20260509141217 61 270 9.0 13.0 0.00 0.00 0.00 72 1003.2
20260509140237 60 248 6.0 10.0 0.00 0.00 0.00 73 1002.9
20260509135258 60 0 7.0 10.0 0.00 0.00 0.00 76 1003.0
20260509134217 59 225 6.0 9.0 0.00 0.00 0.00 78 1002.9
20260509133216 58 203 6.0 10.0 0.00 0.00 0.00 80 1002.7
20260509132217 57 0 6.0 12.0 0.00 0.00 0.00 81 1002.8
20260509131257 56 0 8.0 12.0 0.00 0.00 0.00 82 1002.8
20260509130237 56 225 11.0 14.0 0.00 0.00 0.00 83 1003.0
20260509125216 55 0 7.0 12.0 0.00 0.00 0.00 84 1002.9
20260509124217 55 248 7.0 10.0 0.00 0.00 0.00 86 1002.8
20260509123217 54 0 9.0 14.0 0.00 0.00 0.00 87 1002.8
20260509122217 54 225 9.0 13.0 0.00 0.00 0.00 88 1002.8
20260509121216 53 225 7.0 11.0 0.00 0.00 0.00 89 1002.8
20260509120217 52 203 7.0 10.0 0.00 0.00 0.00 89 1002.8
20260509115237 52 203 7.0 11.0 0.00 0.00 0.00 89 1002.7
20260509114216 52 225 9.0 13.0 0.00 0.00 0.00 89 1002.7
20260509113237 52 203 6.0 9.0 0.00 0.00 0.00 89 1002.5
20260509112217 52 225 7.0 9.0 0.00 0.00 0.00 89 1002.4
20260509111216 52 248 6.0 10.0 0.00 0.00 0.00 89 1002.5
20260509110217 52 203 6.0 9.0 0.00 0.00 0.00 89 1002.3
20260509105216 52 203 7.0 11.0 0.00 0.00 0.00 89 1002.3
20260509104237 52 203 8.0 11.0 0.00 0.00 0.00 89 1002.5
20260509103216 52 248 3.0 4.0 0.00 0.00 0.00 89 1002.2
20260509102217 52 225 6.0 10.0 0.00 0.00 0.00 89 1002.1
20260509101216 52 203 8.0 13.0 0.00 0.00 0.00 89 1002.1
20260509100237 52 203 6.0 8.0 0.00 0.00 0.00 89 1002.1
20260509095216 52 203 4.0 6.0 0.00 0.00 0.00 89 1002.2
20260509094216 52 203 7.0 9.0 0.00 0.00 0.00 89 1002.4
20260509093216 52 225 4.0 6.0 0.00 0.00 0.00 89 1002.7
20260509092216 52 203 5.0 7.0 0.00 0.00 0.00 89 1002.7
20260509091236 52 225 6.0 9.0 0.00 0.00 0.00 88 1002.9
20260509090237 52 225 4.0 6.0 0.00 0.00 0.00 88 1003.0
20260509085216 52 203 5.0 8.0 0.00 0.00 0.00 88 1003.0
20260509084217 52 203 5.0 8.0 0.00 0.00 0.00 87 1002.9
20260509083216 52 203 5.0 7.0 0.00 0.00 0.00 87 1003.1
20260509082216 52 203 3.0 4.0 0.00 0.00 0.00 87 1003.0
20260509081216 52 225 4.0 7.0 0.00 0.00 0.00 86 1003.2
20260509080216 52 203 5.0 7.0 0.00 0.00 0.00 86 1003.0
20260509075237 52 225 5.0 7.0 0.00 0.00 0.00 86 1003.1
20260509074236 52 225 6.0 8.0 0.00 0.00 0.00 85 1003.2
20260509073216 53 203 4.0 6.0 0.00 0.00 0.00 85 1003.3
20260509072216 53 225 4.0 6.0 0.00 0.00 0.00 85 1003.5
20260509071236 53 225 4.0 5.0 0.00 0.00 0.00 85 1003.6
20260509070216 53 225 6.0 9.0 0.00 0.00 0.00 84 1003.7
20260509065222 53 203 5.0 7.0 0.00 0.00 0.00 84 1003.8
20260509064216 53 225 5.0 7.0 0.00 0.00 0.00 83 1004.0
20260509063216 54 203 7.0 12.0 0.00 0.00 0.00 83 1004.0
20260509062236 54 180 4.0 6.0 0.00 0.00 0.00 83 1004.1
20260509061216 54 203 6.0 9.0 0.00 0.00 0.00 82 1004.3
20260509060216 54 225 5.0 7.0 0.00 0.00 0.00 82 1004.3
20260509055236 54 225 7.0 9.0 0.00 0.00 0.00 82 1004.4
20260509054216 55 203 4.0 7.0 0.00 0.00 0.00 81 1004.5
20260509053216 55 203 4.0 6.0 0.00 0.00 0.00 80 1004.5
20260509052216 55 225 3.0 5.0 0.00 0.00 0.00 79 1004.6
20260509051216 55 203 4.0 6.0 0.00 0.00 0.00 78 1004.5
20260509050216 56 203 4.0 5.0 0.00 0.00 0.00 77 1004.5
20260509045216 56 203 4.0 6.0 0.00 0.00 0.00 75 1004.5
20260509044216 56 203 6.0 7.0 0.00 0.00 0.00 73 1004.5
20260509043216 56 203 4.0 6.0 0.00 0.00 0.00 72 1004.4
20260509042217 57 203 5.0 10.0 0.00 0.00 0.00 72 1004.4
20260509041216 57 203 5.0 7.0 0.00 0.00 0.00 71 1004.6
20260509040216 57 203 7.0 11.0 0.00 0.00 0.00 70 1004.6
20260509035217 57 203 5.0 8.0 0.00 0.00 0.00 69 1004.6
20260509034216 57 203 4.0 7.0 0.00 0.00 0.00 68 1004.7
20260509033216 57 203 5.0 7.0 0.00 0.00 0.00 67 1004.7
20260509032217 58 203 3.0 5.0 0.00 0.00 0.00 65 1004.5
20260509031216 58 203 3.0 4.0 0.00 0.00 0.00 62 1004.6
20260509030242 58 180 3.0 5.0 0.00 0.00 0.00 61 1004.5
20260509025216 58 180 5.0 8.0 0.00 0.00 0.00 60 1004.5
20260509024216 59 180 4.0 6.0 0.00 0.00 0.00 59 1004.5
20260509023216 59 180 1.0 3.0 0.00 0.00 0.00 58 1004.6
20260509022237 59 180 2.0 4.0 0.00 0.00 0.00 58 1004.6
20260509021216 60 203 2.0 3.0 0.00 0.00 0.00 57 1004.5
20260509020216 60 180 1.0 2.0 0.00 0.00 0.00 56 1004.5
20260509015216 61 180 2.0 4.0 0.00 0.00 0.00 55 1004.5
20260509014216 61 180 1.0 3.0 0.00 0.00 0.00 54 1004.4
20260509013216 62 203 2.0 4.0 0.00 0.00 0.00 54 1004.3
20260509012216 62 203 3.0 4.0 0.00 0.00 0.00 52 1004.3
20260509011216 63 180 3.0 3.0 0.00 0.00 0.00 51 1004.3
20260509010216 63 203 3.0 4.0 0.00 0.00 0.00 50 1004.2
20260509005216 64 180 5.0 8.0 0.00 0.00 0.00 49 1004.1
20260509004216 64 203 5.0 7.0 0.00 0.00 0.00 48 1004.2
20260509003237 65 225 2.0 3.0 0.00 0.00 0.00 47 1004.2
20260509002216 65 180 3.0 5.0 0.00 0.00 0.00 47 1004.2
20260509001216 66 203 5.0 7.0 0.00 0.00 0.00 46 1004.4
20260509000219 66 203 3.0 5.0 0.00 0.00 0.00 46 1004.4
20260508235216 66 203 4.0 5.0 0.00 0.00 0.00 46 1004.4
20260508234216 66 180 4.0 7.0 0.00 0.00 0.00 45 1004.5
20260508233216 66 225 3.0 4.0 0.00 0.00 0.00 43 1004.5
20260508232216 67 225 5.0 6.0 0.00 0.00 0.00 42 1004.5
20260508231216 68 203 2.0 4.0 0.00 0.00 0.00 41 1004.5
20260508230216 67 203 7.0 10.0 0.00 0.00 0.00 42 1004.7
20260508225216 68 203 5.0 7.0 0.00 0.00 0.00 41 1004.6
20260508224236 68 225 4.0 5.0 0.00 0.00 0.00 42 1004.6
20260508223216 68 113 3.0 6.0 0.00 0.00 0.00 43 1004.6
20260508222216 67 158 2.0 3.0 0.00 0.00 0.00 44 1004.7
20260508221216 68 180 4.0 5.0 0.00 0.00 0.00 44 1004.9
20260508220236 68 225 5.0 8.0 0.00 0.00 0.00 43 1005.0
20260508215216 68 248 5.0 7.0 0.00 0.04 0.00 41 1005.0
20260508214216 68 180 4.0 6.0 0.00 0.04 0.00 41 1005.0
20260508213216 66 225 5.0 7.0 0.00 0.04 0.00 44 1005.1
20260508212216 66 203 5.0 5.0 0.00 0.04 0.00 43 1005.1
20260508211216 67 248 4.0 7.0 0.00 0.04 0.00 42 1005.3
20260508210216 67 270 3.0 4.0 0.00 0.04 0.00 40 1005.2
20260508205216 68 293 1.0 2.0 0.00 0.05 0.00 40 1005.3
20260508204216 68 248 2.0 4.0 0.00 0.05 0.00 41 1005.5
20260508203216 69 180 6.0 10.0 0.00 0.05 0.00 40 1005.7